K7OLI-13 Weather Reports


Display with metric or nautical units.
time (UTC)temp
F
wind
direction
speed
MPH
gust
MPH
rain 1hr
in
rain 24hr
in
rain mn
in
humidity
%
barometer
mb
20260901033020 69 214 10.0 17.0 0.00 0.00 0.00 61
20260901032028 69 207 9.0 12.0 0.00 0.00 0.00 60
20260901031036 70 187 9.0 11.0 0.00 0.00 0.00 59
20260901030026 70 213 9.0 12.0 0.00 0.00 0.00 58
20260901025054 71 188 10.0 13.0 0.00 0.00 0.00 56
20260901024022 72 192 8.0 13.0 0.00 0.00 0.00 55
20260901023048 73 208 9.0 14.0 0.00 0.00 0.00 52
20260901022019 74 198 9.0 12.0 0.00 0.00 0.00 51
20260901021047 75 201 11.0 13.0 0.00 0.00 0.00 50
20260901020035 77 216 9.0 13.0 0.00 0.00 0.00 48
20260901015026 78 223 10.0 13.0 0.00 0.00 0.00 47
20260901014031 79 221 10.0 13.0 0.00 0.00 0.00 46
20260901013021 81 228 9.0 12.0 0.00 0.00 0.00 45
20260901012048 85 227 5.0 11.0 0.00 0.00 0.00 37
20260901011036 84 105 3.0 4.0 0.00 0.00 0.00 37
20260901010026 85 150 3.0 5.0 0.00 0.00 0.00 38
20260901005034 84 115 3.0 5.0 0.00 0.00 0.00 37
20260901004023 84 143 3.0 4.0 0.00 0.00 0.00 37
20260901003031 84 154 3.0 4.0 0.00 0.00 0.00 37
20260901002021 84 164 4.0 5.0 0.00 0.00 0.00 37
20260901001029 85 38 2.0 4.0 0.00 0.00 0.00 38
20260901000036 85 175 5.0 7.0 0.00 0.00 0.00 37
20260831235026 85 214 3.0 7.0 0.00 0.00 0.00 37
20260831234114 85 138 3.0 4.0 0.00 0.00 0.00 38
20260831233023 84 5 2.0 4.0 0.00 0.00 0.00 40
20260831232031 84 320 1.0 3.0 0.00 0.00 0.00 39
20260831231040 84 184 4.0 7.0 0.00 0.00 0.00 40
20260831230048 84 258 4.0 6.0 0.00 0.00 0.00 40
20260831225036 84 189 3.0 5.0 0.00 0.00 0.00 41
20260831224105 83 88 3.0 5.0 0.00 0.00 0.00 40
20260831223033 84 223 4.0 5.0 0.00 0.00 0.00 40
20260831222022 82 106 3.0 5.0 0.00 0.00 0.00 41
20260831221051 81 178 3.0 4.0 0.00 0.00 0.00 42
20260831220020 83 206 4.0 6.0 0.00 0.00 0.00 41
20260831215046 83 195 4.0 6.0 0.00 0.00 0.00 41
20260831214036 80 98 2.0 4.0 0.00 0.00 0.00 45
20260831213025 80 182 3.0 5.0 0.00 0.00 0.00 45
20260831212033 81 223 5.0 8.0 0.00 0.00 0.00 44
20260831211022 80 189 3.0 5.0 0.00 0.00 0.00 45
20260831210050 79 125 4.0 5.0 0.00 0.00 0.00 47
20260831205019 78 128 3.0 5.0 0.00 0.00 0.00 48
20260831204028 78 284 4.0 5.0 0.00 0.00 0.00 47
20260831203035 78 226 5.0 7.0 0.00 0.00 0.00 47
20260831202025 78 234 5.0 8.0 0.00 0.00 0.00 47
20260831201034 77 36 4.0 6.0 0.00 0.00 0.00 49
20260831200026 76 61 4.0 5.0 0.00 0.00 0.00 50
20260831195030 76 224 4.0 8.0 0.00 0.00 0.00 50
20260831194040 75 243 3.0 4.0 0.00 0.00 0.00 52
20260831193027 74 111 3.0 4.0 0.00 0.00 0.00 53
20260831192035 74 277 3.0 5.0 0.00 0.00 0.00 54
20260831191026 73 339 3.0 5.0 0.00 0.00 0.00 55
20260831190034 72 351 5.0 7.0 0.00 0.00 0.00 56
20260831185022 73 269 4.0 5.0 0.00 0.00 0.00 56
20260831184030 72 120 3.0 4.0 0.00 0.00 0.00 57
20260831183019 72 98 3.0 5.0 0.00 0.00 0.00 57
20260831182027 71 265 3.0 5.0 0.00 0.00 0.00 58
20260831181035 71 222 2.0 4.0 0.00 0.00 0.00 58
20260831180026 73 191 2.0 4.0 0.00 0.00 0.00 55
20260831175034 72 108 2.0 3.0 0.00 0.00 0.00 56
20260831174022 72 52 3.0 5.0 0.00 0.00 0.00 57
20260831173030 71 120 2.0 3.0 0.00 0.00 0.00 58
20260831172020 69 238 2.0 3.0 0.00 0.00 0.00 62
20260831171027 68 7 3.0 4.0 0.00 0.00 0.00 63
20260831170037 70 39 2.0 3.0 0.00 0.00 0.00 61
20260831165026 69 100 2.0 3.0 0.00 0.00 0.00 63
20260831164032 67 45 3.0 4.0 0.00 0.00 0.00 66
20260831163022 66 24 3.0 4.0 0.00 0.00 0.00 68
20260831162050 65 85 2.0 3.0 0.00 0.00 0.00 70
20260831161020 64 69 2.0 3.0 0.00 0.00 0.00 74
20260831160027 64 24 3.0 4.0 0.00 0.00 0.00 73
20260831155055 63 9 2.0 3.0 0.00 0.00 0.00 75
20260831154025 63 26 1.0 2.0 0.00 0.00 0.00 76
20260831153033 61 28 0.0 2.0 0.00 0.00 0.00 79
20260831152022 61 19 3.0 4.0 0.00 0.00 0.00 80
20260831151051 60 313 1.0 2.0 0.00 0.00 0.00 82
20260831150020 59 0.0 0.0 0.00 0.00 0.00 85
20260831145028 57 0.0 0.0 0.00 0.00 0.00 87
20260831144054 56 0.0 0.0 0.00 0.00 0.00 89
20260831143025 55 0.0 0.0 0.00 0.00 0.00 93
20260831142033 54 0.0 0.0 0.00 0.00 0.00 94
20260831141023 53 0.0 0.0 0.00 0.00 0.00 95
20260831140031 53 0.0 0.0 0.00 0.00 0.00 96
20260831135020 53 0.0 0.0 0.00 0.00 0.00 97
20260831134048 52 0.0 0.0 0.00 0.00 0.00 97
20260831133036 53 0.0 0.0 0.00 0.00 0.00 97
20260831132026 53 0.0 0.0 0.00 0.00 0.00 97
20260831131054 53 0.0 0.0 0.00 0.00 0.00 97
20260831130026 52 0.0 0.0 0.00 0.00 0.00 97
20260831125034 52 0.0 0.0 0.00 0.00 0.00 96
20260831124021 52 0.0 0.0 0.00 0.00 0.00 95
20260831123049 52 0.0 0.0 0.00 0.00 0.00 95
20260831122037 53 0.0 0.0 0.00 0.00 0.00 95
20260831121026 53 0.0 0.0 0.00 0.00 0.00 95
20260831120034 53 0.0 0.0 0.00 0.00 0.00 95
20260831115026 53 0.0 0.0 0.00 0.00 0.00 95
20260831114052 54 0.0 0.0 0.00 0.00 0.00 95
20260831113021 54 0.0 0.0 0.00 0.00 0.00 95
20260831112030 53 0.0 0.0 0.00 0.00 0.00 95
20260831111037 53 0.0 0.0 0.00 0.00 0.00 93
20260831110027 54 293 0.0 2.0 0.00 0.00 0.00 93
20260831105035 54 0.0 0.0 0.00 0.00 0.00 93
20260831104024 54 270 0.0 2.0 0.00 0.00 0.00 92
20260831103032 55 0.0 0.0 0.00 0.00 0.00 91
20260831102021 55 293 0.0 2.0 0.00 0.00 0.00 91
20260831101030 55 293 0.0 2.0 0.00 0.00 0.00 91
20260831100019 55 270 1.0 2.0 0.00 0.00 0.00 91
20260831095027 55 248 1.0 2.0 0.00 0.00 0.00 91
20260831094035 55 45 0.0 1.0 0.00 0.00 0.00 90
20260831093024 55 0.0 0.0 0.00 0.00 0.00 89
20260831092053 56 270 0.0 1.0 0.00 0.00 0.00 88
20260831091102 56 268 1.0 2.0 0.00 0.00 0.00 88
20260831090110 56 240 1.0 2.0 0.00 0.00 0.00 88
20260831085019 56 0.0 0.0 0.00 0.00 0.00 88
20260831084029 56 0.0 0.0 0.00 0.00 0.00 87
20260831083036 56 0.0 0.0 0.00 0.00 0.00 86
20260831082025 57 0.0 0.0 0.00 0.00 0.00 85
20260831081034 57 0.0 0.0 0.00 0.00 0.00 84
20260831080022 57 0.0 0.0 0.00 0.00 0.00 83
20260831075051 58 284 1.0 2.0 0.00 0.00 0.00 82
20260831074020 58 256 1.0 2.0 0.00 0.00 0.00 81
20260831073028 59 256 1.0 2.0 0.00 0.00 0.00 81